GW6542 Weather Reports


time (UTC)temp
C
wind
direction
speed
KPH
gust
KPH
rain 1hr
cm
rain 24hr
cm
rain mn
cm
humidity
%
barometer
mb
20260507170055 14 54 3.2 9.7 0.00 0.00 0.00 68 1020.5
20260507164607 14 18 6.4 12.9 0.00 0.00 0.00 69 1020.6
20260507163110 13 11 3.2 9.7 0.00 0.00 0.00 70 1020.5
20260507161617 13 344 6.4 12.9 0.00 0.00 0.00 70 1020.6
20260507160116 13 57 6.4 9.7 0.00 0.00 0.00 71 1020.6
20260507153056 12 9 8.0 14.5 0.00 0.00 0.00 71 1020.8
20260507151553 12 19 4.8 11.3 0.00 0.00 0.00 73 1020.9
20260507150059 12 38 3.2 8.0 0.00 0.00 0.00 74 1021.0
20260507144601 12 30 6.4 11.3 0.00 0.00 0.00 74 1021.0
20260507143059 12 360 4.8 8.0 0.00 0.00 0.00 76 1020.9
20260507141602 12 21 3.2 6.4 0.00 0.00 0.00 78 1020.8
20260507140109 12 9 3.2 4.8 0.00 0.00 0.00 77 1020.6
20260507134550 12 352 1.6 3.2 0.00 0.00 0.00 78 1020.6
20260507133052 12 30 1.6 3.2 0.00 0.00 0.00 78 1020.5
20260507131552 12 32 3.2 3.2 0.00 0.00 0.00 78 1020.5
20260507130050 12 0 0.0 0.0 0.00 0.00 0.00 77 1020.6
20260507124549 12 9 3.2 4.8 0.00 0.00 0.00 78 1020.6
20260507123052 12 33 1.6 3.2 0.00 0.00 0.00 78 1020.7
20260507121550 12 42 1.6 3.2 0.00 0.00 0.00 78 1020.7
20260507120051 12 32 1.6 4.8 0.00 0.00 0.00 77 1020.8
20260507114556 12 0 0.0 1.6 0.00 0.00 0.00 78 1020.9
20260507113052 12 23 1.6 4.8 0.00 0.00 0.00 78 1021.0
20260507111600 12 39 1.6 4.8 0.00 0.00 0.00 77 1021.0
20260507110052 12 38 3.2 8.0 0.00 0.00 0.00 77 1021.0
20260507104555 12 36 6.4 9.7 0.00 0.00 0.00 75 1021.1
20260507103054 12 44 4.8 8.0 0.00 0.00 0.00 79 1021.2
20260507101607 12 32 3.2 8.0 0.00 0.00 0.00 80 1021.3
20260507100052 12 9 3.2 4.8 0.00 0.00 0.00 80 1021.4
20260507094555 12 343 1.6 4.8 0.00 0.00 0.00 80 1021.4
20260507093100 12 11 4.8 6.4 0.00 0.00 0.00 77 1021.5
20260507091552 12 350 3.2 4.8 0.00 0.00 0.00 78 1021.6
20260507090113 12 0 0.0 0.0 0.00 0.00 0.00 82 1021.7
20260507084555 12 0 0.0 0.0 0.00 0.00 0.00 81 1021.8
20260507083053 12 0 0.0 0.0 0.00 0.00 0.00 81 1021.7
20260507081559 12 0 0.0 0.0 0.00 0.00 0.00 80 1021.7
20260507080055 12 0 0.0 0.0 0.00 0.00 0.00 80 1021.7
20260507074555 12 0 0.0 0.0 0.00 0.00 0.00 80 1021.7
20260507073052 12 237 1.6 3.2 0.00 0.00 0.00 81 1021.7
20260507071548 12 253 3.2 4.8 0.00 0.00 0.00 80 1021.6
20260507070056 12 0 0.0 1.6 0.00 0.00 0.00 80 1021.5
20260507064607 12 0 0.0 3.2 0.00 0.00 0.00 81 1021.6
20260507063055 12 246 1.6 4.8 0.00 0.00 0.00 81 1021.7
20260507061553 12 244 3.2 4.8 0.00 0.00 0.00 81 1021.7
20260507060058 12 246 3.2 6.4 0.00 0.00 0.00 81 1021.7
20260507054609 12 238 6.4 11.3 0.00 0.00 0.00 80 1021.5
20260507053059 12 257 8.0 12.9 0.00 0.00 0.00 79 1021.5
20260507051555 12 242 4.8 8.0 0.00 0.00 0.00 80 1021.6
20260507050056 12 241 4.8 8.0 0.00 0.00 0.00 79 1021.5
20260507044558 12 244 3.2 11.3 0.00 0.00 0.00 79 1021.5
20260507043101 12 241 6.4 9.7 0.00 0.00 0.00 79 1021.3
20260507041603 12 248 6.4 11.3 0.00 0.00 0.00 78 1021.1
20260507040058 12 246 6.4 11.3 0.00 0.00 0.00 77 1021.0
20260507034556 13 259 4.8 14.5 0.00 0.00 0.00 76 1020.8
20260507033047 13 257 9.7 19.3 0.00 0.00 0.00 75 1020.4
20260507031551 13 248 12.9 19.3 0.00 0.00 0.00 75 1020.2
20260507030058 14 254 9.7 16.1 0.00 0.00 0.00 73 1020.1
20260507024604 15 248 9.7 17.7 0.00 0.00 0.00 72 1019.9
20260507023110 15 251 14.5 22.5 0.00 0.00 0.00 70 1020.0
20260507021556 16 245 14.5 20.9 0.00 0.00 0.00 69 1020.0
20260507020056 16 246 11.3 20.9 0.00 0.00 0.00 68 1019.9
20260507014608 17 255 11.3 25.7 0.00 0.00 0.00 68 1020.0
20260507013112 17 239 11.3 20.9 0.00 0.00 0.00 66 1019.9
20260507011555 17 252 12.9 24.1 0.00 0.00 0.00 64 1020.0
20260507010052 18 265 12.9 19.3 0.00 0.00 0.00 62 1020.0
20260507004553 18 287 12.9 22.5 0.00 0.00 0.00 63 1020.0
20260507003056 19 294 12.9 22.5 0.00 0.00 0.00 60 1020.0
20260507001614 20 246 11.3 20.9 0.00 0.00 0.00 59 1020.0
20260507000052 20 246 12.9 22.5 0.00 0.00 0.00 60 1020.0
20260506234555 20 282 14.5 22.5 0.00 0.00 0.00 60 1020.1
20260506233049 20 286 12.9 24.1 0.00 0.00 0.00 59 1020.0
20260506231551 21 315 11.3 17.7 0.00 0.00 0.00 58 1019.9
20260506230052 21 238 6.4 16.1 0.00 0.00 0.00 58 1020.0
20260506224557 21 203 6.4 14.5 0.00 0.00 0.00 58 1020.0
20260506223111 21 285 3.2 17.7 0.00 0.00 0.00 57 1020.2
20260506221555 21 196 0.0 14.5 0.00 0.00 0.00 58 1020.3
20260506220051 21 223 4.8 12.9 0.00 0.00 0.00 58 1020.3
20260506214558 20 203 4.8 12.9 0.00 0.00 0.00 59 1020.5
20260506213102 20 238 4.8 12.9 0.00 0.00 0.00 59 1020.5
20260506211557 20 138 4.8 14.5 0.00 0.00 0.00 60 1020.6
20260506210109 19 218 4.8 17.7 0.00 0.00 0.00 62 1020.6
20260506204555 19 174 6.4 12.9 0.00 0.00 0.00 63 1020.8
20260506203101 18 325 3.2 12.9 0.00 0.00 0.00 67 1020.9
20260506201553 18 134 3.2 14.5 0.00 0.00 0.00 68 1020.9
20260506200136 18 255 1.6 11.3 0.00 0.00 0.00 70 1021.1
20260506194558 17 182 3.2 11.3 0.00 0.00 0.00 72 1021.0
20260506193052 17 173 4.8 12.9 0.00 0.00 0.00 72 1021.0
20260506191554 17 181 4.8 9.7 0.00 0.00 0.00 72 1021.0
20260506190056 16 201 4.8 12.9 0.00 0.00 0.00 74 1021.1
20260506184554 16 192 4.8 24.1 0.00 0.00 0.00 76 1021.2
20260506183055 15 271 4.8 14.5 0.00 0.00 0.00 76 1021.2
20260506181557 15 181 8.0 14.5 0.00 0.00 0.00 77 1021.2
20260506180108 15 212 3.2 9.7 0.00 0.00 0.00 79 1021.1
20260506174558 14 242 4.8 11.3 0.00 0.00 0.00 80 1021.1
20260506173107 13 207 4.8 11.3 0.00 0.00 0.00 81 1021.2
20260506171557 13 269 4.8 11.3 0.00 0.00 0.00 83 1021.3